Regional Weather Roundup
Issued by NWS

Home | Current Version | Previous Version | Graphics & Text | Print | Product List | Glossary On
Versions: 1 2 3 4 5 6 7 8 9 10 11 12 13 14 15 16 17 18 19 20 21 22 23 24 25 26 27 28 29 30 31 32 33 34 35 36 37 38 39 40 41 42 43 44 45 46 47 48 49 50
000
ASUS44 KMEG 232010
RWRTN
TENNESSEE HOURLY STATE WEATHER ROUNDUP
NATIONAL WEATHER SERVICE MEMPHIS TN
300 PM CDT THU MAR 23 2017

TNZ002-004-019-021-049-052-054-088>092-232100-
WEST TENNESSEE

CITY           SKY/WX    TMP DP  RH WIND       PRES   REMARKS
MEMPHIS INTL   MOSUNNY   78  50  37 S10       30.16F
NWS MEMPHIS      N/A     78 N/A N/A MISG        N/A
JACKSON        SUNNY     75  45  34 VRB3      30.19F
DYERSBURG      SUNNY     70  45  40 SE9       30.19F
SOMERVILLE     SUNNY     77  48  36 S9        30.17F
BOLIVAR        SUNNY     75  45  33 E13       30.18F
PARIS          SUNNY     61  37  41 SE7       30.22F
HUNTINGDON     MOSUNNY   68  39  34 CALM      30.20F
SAVANNAH       SUNNY     75  46  35 S10       30.20F
$$

TNZ008-025-027-028-033-062-065-066-232100-
NORTH MIDDLE TENNESSEE

CITY           SKY/WX    TMP DP  RH WIND       PRES   REMARKS
NASHVILLE      PTSUNNY   64  38  38 SE9       30.27F
PORTLAND       MOSUNNY   54  43  66 NE5       30.30S
CLARKSVILLE    CLOUDY    52  39  61 NE8       30.26F
SMYRNA         MOSUNNY   67  43  41 SE6       30.28F
COOKEVILLE     SUNNY     63  39  42 S9        30.29F
GALLATIN       MOSUNNY   57  41  54 NE5       30.31S
CROSSVILLE     MOSUNNY   59  35  40 S10G20    30.33F
$$

TNZ061-075-076-078-094-096-097-232100-
SOUTH MIDDLE TENNESSEE

CITY           SKY/WX    TMP DP  RH WIND       PRES   REMARKS
FAYETTEVILLE   SUNNY     68  43  40 SE13G20   30.27F
TULLAHOMA      SUNNY     66  36  32 S14       30.28F
WINCHESTER     SUNNY     66  43  42 SE17      30.29F
MCMINNVILLE    MOSUNNY   63  39  42 VRB6      30.29F
COLUMBIA       SUNNY     70  46  43 SE10      30.23F
SHELBYVILLE    SUNNY     68  45  42 S7        30.29S
$$

TNZ017-018-042-046-047-232100-
NORTHEAST TENNESSEE

CITY           SKY/WX    TMP DP  RH WIND       PRES   REMARKS
TRI CITIES     MOSUNNY   63  28  26 CALM      30.36F
ELIZABETHTON   SUNNY     64  30  27 S7        30.35F
$$

TNZ012-013-036-069-073-074-232100-
CENTRAL EAST TENNESSEE

CITY           SKY/WX    TMP DP  RH WIND       PRES   REMARKS
KNOXVILLE      PTSUNNY   66  35  31 SW8       30.33F
OAK RIDGE      SUNNY     67  36  31 VRB5      30.35F
DOWNTOWN KNOXV SUNNY     66  34  30 W5        30.35F
GATLINBURG     SUNNY     64  32  29 NW7       30.33F
MORRISTOWN     SUNNY     63  28  27 CALM      30.34F
JACKSBORO      SUNNY     66  34  30 SE8       30.36F
$$

TNZ083-085-099-232100-
SOUTHEAST TENNESSEE

CITY           SKY/WX    TMP DP  RH WIND       PRES   REMARKS
CHATTANOOGA    CLOUDY    65  36  34 S12       30.34F
$$

SKY/WX REPORTED AS FAIR MEANS FEW OR NO CLOUDS BELOW
12 THOUSAND FEET.





USA.gov is the U.S. government's official web portal to all federal, state and local government web resources and services.